Volver al catálogo

STARLINK-32781

ActivoComunicacionesVLEO
NORAD 62848·PAYLOAD·🇺🇸 United States

Lanzado Jan 27, 2025 desde Cape Canaveral Space Force Station

Loading…

Próximos Pases (próximas 24 horas)

TLE

ActualizadoSource: CelesTrak SupGP

Época: Sep 14, 2026, 22:36 UTC

1 62848C 25019V   26257.94215278  .00038254  00000+0  13853-2 0  2575
2 62848  43.0005 100.2088 0001345 269.0502 118.4592 15.27565038    11

Sigue STARLINK-32781 en tiempo real con AllMySat

Download on the App Store